Flag for Belarus Weather past 2 weeks in Vitebsk, Belarus

Now
70 °F

Scattered clouds.


Feels Like: 70 °F
Forecast: 53 / 68 °F
Wind: 20 mph from Southwest

Location: Vitebsk

Current Time: Jul 30, 2015 at 6:00:53 PM

Latest Report: Jul 30, 2015 at 5:00 PM


Visibility: N/A

Pressure: 29.71 "Hg

Humidity: 53%

Dew point: 52 °F

Location of VitebskLocation

Historic Weather in Vitebsk — Graph

°F

Vitebsk temperature yesterday

Maximum temperature yesterday: 72 °F (at 3:00 PM)
Minimum temperature yesterday: 55 °F (at 6:00 AM)
Average temperature yesterday: 66 °F

Past Weeks' High & Low Weather Summary

 TemperatureHumidityPressure
High91 °F (Jul 26, 3:00 PM)100% (Jul 20, 12:00 PM)30.07 "Hg (Jul 20, 12:00 PM)
Low50 °F (Jul 18, 6:00 AM)32% (Jul 26, 3:00 PM)29.45 "Hg (Jul 20, 12:00 PM)
Average65 °F67%29.82 "Hg
* Reported Jul 15 5:00 PM — Jul 30 5:00 PM, Vitebsk, Weather by CustomWeather, © 2015

Note: Actual official high and low records may vary slightly from our data, if they occured in-between our weather recording intervals... More about our weather records

Advertising

Vitebsk weather history for previous 24 hours

 ConditionsComfort  
Time TempWeatherWind HumidityBarometerVisibility
5:00 PM
Thu, Jul 30
70 °FScattered clouds.20 mph53%29.71 "HgN/A
4:00 PM70 °FScattered clouds.20 mph53%29.71 "HgN/A
3:00 PM70 °FScattered clouds.20 mph53%29.71 "HgN/A
2:00 PM68 °FScattered clouds.20 mph53%29.71 "HgN/A
1:00 PM70 °FScattered clouds.15 mph50%29.71 "HgN/A
12:00 PM68 °FScattered clouds.13 mph53%29.71 "HgN/A
11:00 AM66 °FSunny.8 mph60%29.71 "Hg10 mi
10:30 AM64 °FSunny.8 mph73%29.74 "Hg10 mi
10:00 AM64 °FSunny.10 mph73%29.74 "Hg10 mi
9:30 AM61 °FSunny.8 mph83%29.74 "Hg10 mi
9:00 AM61 °FScattered clouds.8 mph83%29.74 "HgN/A
8:00 AM57 °FScattered clouds.8 mph82%29.74 "HgN/A
7:00 AM57 °FPartly sunny.6 mph88%29.74 "HgN/A
6:00 AM55 °FPassing clouds.6 mph94%29.77 "HgN/A
7:00 PM
Wed, Jul 29
70 °FScattered clouds.13 mph50%29.71 "HgN/A
6:00 PM72 °FScattered clouds.13 mph44%29.68 "HgN/A
Weather by CustomWeather, © 2015

See weather overviewHow to use our weather pages